Location: ???????
(55.4362°N, 38.1183°E)
Time: 13:01:10
(UTC+00:00)

deb Delta 139 - Pass Details

Date: 02 February 2022
Orbit: 790 x 1093 km, 98.7° (Epoch: 23 May)

Event Time Altitude Azimuth Distance (km) Brightness Sun altitude
Rises 03:00:31 0° 18° (NNE) 3,727 ? -19.5°
Reaches altitude 10° 03:03:07 10° 26° (NNE) 2,814 ? -19.2°
Maximum altitude 03:09:09 41° 96° (E) 1,489 ? -18.3°
Drops below altitude 10° 03:15:24 10° 165° (SSE) 2,927 ? -17.4°
Sets 03:18:09 0° 172° (S) 3,891 ? -17.0°
